W4FY Weather Reports


time (UTC)temp
C
wind
direction
speed
KPH
gust
KPH
rain 1hr
cm
rain 24hr
cm
rain mn
cm
humidity
%
barometer
mb
20260906060003 18 209 1.6 3.2 0.00 0.05 0.00 92 1026.5
20260906055403 18 209 1.6 3.2 0.00 0.05 0.00 92 1026.5
20260906054503 18 209 1.6 3.2 0.00 0.05 0.00 93 1026.5
20260906053603 18 209 1.6 3.2 0.00 0.05 0.00 92 1027.3
20260906052703 18 209 1.6 3.2 0.00 0.05 0.00 92 1027.3
20260906051803 18 209 1.6 4.8 0.00 0.05 0.00 92 1027.3
20260906050903 18 209 1.6 3.2 0.00 0.05 0.00 91 1027.3
20260906050004 18 209 1.6 3.2 0.00 0.05 0.00 90 1027.3
20260906045403 18 209 1.6 3.2 0.00 0.05 0.00 89 1026.9
20260906044503 18 216 1.6 6.4 0.00 0.05 0.00 89 1027.3
20260906043603 18 231 1.6 4.8 0.00 0.05 0.00 89 1027.3
20260906042919 18 231 1.6 4.8 0.00 0.05 0.00 89 1026.9
20260906041803 18 245 1.6 6.4 0.00 0.05 0.00 88 1027.3
20260906040903 18 264 0.0 1.6 0.00 0.05 0.00 87 1026.9
20260906040010 18 264 0.0 1.6 0.00 0.05 0.00 87 1027.3
20260906035403 18 264 0.0 1.6 0.00 0.05 0.05 87 1027.3
20260906034717 18 264 0.0 1.6 0.00 0.05 0.05 87 1027.3
20260906033603 18 292 1.6 3.2 0.00 0.05 0.05 87 1027.3
20260906032703 18 319 3.2 6.4 0.00 0.05 0.05 88 1027.3
20260906031803 18 305 3.2 6.4 0.00 0.05 0.05 87 1027.7
20260906030903 18 277 1.6 6.4 0.00 0.05 0.05 88 1027.7
20260906030003 18 199 1.6 3.2 0.00 0.05 0.05 88 1027.3
20260906025403 18 199 1.6 3.2 0.00 0.05 0.05 88 1027.7
20260906024503 18 199 0.0 3.2 0.00 0.05 0.05 87 1027.7
20260906023603 18 199 0.0 3.2 0.00 0.05 0.05 87 1026.9
20260906022918 18 199 0.0 3.2 0.00 0.05 0.05 88 1026.9
20260906021803 18 198 1.6 4.8 0.00 0.05 0.05 88 1027.3
20260906021118 18 197 0.0 3.2 0.00 0.05 0.05 88 1026.9
20260906020003 18 197 1.6 3.2 0.00 0.05 0.05 87 1026.9
20260906015403 18 197 1.6 4.8 0.00 0.05 0.05 88 1026.9
20260906014503 18 209 1.6 6.4 0.00 0.05 0.05 87 1027.3
20260906013603 18 272 1.6 4.8 0.00 0.05 0.05 88 1026.9
20260906012917 18 269 1.6 4.8 0.00 0.05 0.05 88 1026.9
20260906011803 18 318 3.2 14.5 0.00 0.05 0.05 88 1026.9
20260906010903 18 310 1.6 6.4 0.00 0.05 0.05 87 1026.5
20260906010217 19 319 1.6 4.8 0.00 0.05 0.05 87 1026.5
20260906005617 19 311 1.6 6.4 0.00 0.05 0.05 87 1026.9
20260906004503 19 289 1.6 4.8 0.00 0.05 0.05 87 1026.9
20260906003817 19 310 1.6 6.4 0.00 0.05 0.05 86 1026.5
20260906002703 19 316 1.6 9.7 0.00 0.05 0.05 87 1026.5
20260906001803 19 281 1.6 11.3 0.00 0.05 0.05 86 1026.5
20260906000903 19 266 1.6 4.8 0.00 0.05 0.05 86 1026.5
20260906000003 19 317 1.6 4.8 0.00 0.05 0.05 85 1026.5
20260905235404 19 313 1.6 11.3 0.00 0.05 0.05 85 1026.5
20260905234503 20 308 1.6 6.4 0.00 0.05 0.05 84 1026.5
20260905233603 20 345 1.6 4.8 0.00 0.05 0.05 84 1026.5
20260905232703 20 299 1.6 6.4 0.00 0.05 0.05 84 1026.5
20260905231803 20 223 1.6 4.8 0.00 0.05 0.05 84 1026.5
20260905230903 20 195 1.6 4.8 0.00 0.05 0.05 82 1026.1
20260905230003 20 122 1.6 4.8 0.00 0.05 0.05 81 1026.1
20260905225403 21 139 1.6 6.4 0.00 0.05 0.05 80 1026.5
20260905224503 21 303 0.0 4.8 0.00 0.05 0.05 79 1026.1
20260905223603 21 310 3.2 11.3 0.00 0.05 0.05 78 1026.1
20260905222703 21 339 3.2 12.9 0.00 0.05 0.05 77 1026.1
20260905221803 22 39 1.6 6.4 0.00 0.05 0.05 78 1026.1
20260905220903 22 281 1.6 9.7 0.00 0.05 0.05 78 1026.5
20260905220003 22 298 1.6 12.9 0.00 0.05 0.05 77 1026.5
20260905215403 22 306 3.2 17.7 0.00 0.05 0.05 77 1026.1
20260905214503 22 312 3.2 11.3 0.00 0.05 0.05 76 1026.1
20260905213603 22 334 1.6 11.3 0.00 0.05 0.05 76 1026.5
20260905212703 22 310 1.6 9.7 0.00 0.05 0.05 74 1026.5
20260905211803 22 341 3.2 11.3 0.00 0.05 0.05 74 1026.9
20260905210903 23 313 3.2 9.7 0.00 0.05 0.05 75 1026.5
20260905210003 23 300 1.6 9.7 0.00 0.05 0.05 74 1026.5
20260905205403 23 207 1.6 4.8 0.00 0.05 0.05 74 1026.5
20260905204503 23 200 1.6 4.8 0.00 0.05 0.05 74 1026.9
20260905203603 23 249 1.6 4.8 0.00 0.05 0.05 73 1026.5
20260905202703 23 241 1.6 4.8 0.00 0.05 0.05 73 1026.9
20260905202017 23 300 1.6 6.4 0.00 0.05 0.05 72 1026.9
20260905200903 23 339 1.6 11.3 0.00 0.05 0.05 72 1026.9
20260905200004 23 311 1.6 9.7 0.00 0.05 0.05 72 1027.3
20260905195403 23 304 1.6 6.4 0.00 0.05 0.05 72 1026.9
20260905194503 23 303 1.6 9.7 0.00 0.05 0.05 73 1026.9
20260905193603 22 316 3.2 12.9 0.00 0.05 0.05 74 1027.3
20260905192917 22 357 3.2 12.9 0.00 0.05 0.05 72 1026.9
20260905192018 22 345 1.6 9.7 0.00 0.05 0.05 72 1027.3
20260905190903 21 312 1.6 6.4 0.00 0.05 0.05 72 1027.3
20260905190217 20 300 1.6 9.7 0.00 0.05 0.05 71 1027.3
20260905185403 20 324 1.6 6.4 0.00 0.05 0.05 71 1027.3
20260905184503 20 326 1.6 6.4 0.00 0.05 0.05 70 1027.3
20260905183817 20 326 1.6 4.8 0.00 0.05 0.05 70 1027.3
20260905182703 19 319 3.2 12.9 0.00 0.05 0.05 72 1027.3
20260905181803 18 305 3.2 6.4 0.03 0.05 0.05 75 1027.7
20260905180903 17 303 1.6 6.4 0.05 0.05 0.05 78 1027.7
20260905180003 17 333 4.8 14.5 0.05 0.05 0.05 80 1028.0
20260905175403 17 325 4.8 11.3 0.05 0.05 0.05 82 1028.4
20260905174717 16 316 3.2 11.3 0.05 0.05 0.05 83 1028.0
20260905173603 16 327 1.6 4.8 0.05 0.05 0.05 85 1028.4
20260905172703 16 24 1.6 11.3 0.05 0.05 0.05 86 1028.8
20260905171803 17 52 4.8 16.1 0.03 0.03 0.03 82 1029.2
20260905170903 18 339 8.0 20.9 0.00 0.00 0.00 77 1029.2
20260905170003 20 341 8.0 22.5 0.00 0.00 0.00 74 1028.8
20260905165403 22 359 4.8 22.5 0.00 0.00 0.00 74 1028.8
20260905164503 23 147 1.6 6.4 0.00 0.00 0.00 72 1028.8
20260905163816 24 159 1.6 6.4 0.00 0.00 0.00 72 1029.2
20260905162703 25 160 1.6 3.2 0.00 0.00 0.00 70 1029.2
20260905161803 25 162 1.6 6.4 0.00 0.00 0.00 70 1029.2
20260905160903 25 240 1.6 9.7 0.00 0.00 0.00 71 1029.6
20260905160003 25 284 1.6 4.8 0.00 0.00 0.00 69 1029.6
20260905155403 24 282 1.6 6.4 0.00 0.00 0.00 71 1029.2
20260905154503 24 277 1.6 4.8 0.00 0.00 0.00 70 1029.6
20260905153603 24 274 1.6 9.7 0.00 0.00 0.00 72 1029.6
20260905152703 24 270 1.6 4.8 0.00 0.00 0.00 72 1029.6
20260905151803 24 270 1.6 3.2 0.00 0.00 0.00 71 1029.2
20260905150903 24 270 1.6 6.4 0.00 0.00 0.00 71 1029.2
20260905150003 24 270 1.6 4.8 0.00 0.00 0.00 71 1029.2
20260905145403 25 269 1.6 4.8 0.00 0.00 0.00 70 1029.2
20260905144716 25 269 1.6 4.8 0.00 0.00 0.00 69 1029.2
20260905143603 25 270 1.6 4.8 0.00 0.00 0.00 70 1028.8
20260905142703 25 270 1.6 4.8 0.00 0.00 0.00 69 1029.2
20260905142016 25 270 1.6 4.8 0.00 0.00 0.00 71 1029.2
20260905140903 25 270 1.6 3.2 0.00 0.00 0.00 72 1029.2
20260905140004 25 270 1.6 3.2 0.00 0.00 0.00 72 1029.2
20260905135404 25 270 1.6 4.8 0.00 0.00 0.00 70 1028.8
20260905134503 25 270 1.6 6.4 0.00 0.00 0.00 69 1029.2
20260905133603 25 244 1.6 9.7 0.00 0.00 0.00 68 1029.2
20260905132703 26 152 1.6 6.4 0.00 0.00 0.00 67 1029.2
20260905131803 26 148 1.6 4.8 0.00 0.00 0.00 68 1029.2
20260905130903 25 148 1.6 4.8 0.00 0.00 0.00 72 1029.6
20260905130217 25 148 1.6 4.8 0.00 0.00 0.00 71 1029.6
20260905125403 25 152 1.6 6.4 0.00 0.00 0.00 71 1029.6
20260905124503 25 296 1.6 4.8 0.00 0.00 0.00 72 1029.6
20260905123603 25 296 1.6 4.8 0.00 0.00 0.00 73 1029.6
20260905122703 25 296 1.6 3.2 0.00 0.00 0.00 75 1029.2
20260905093603 20 297 3.2 9.7 0.00 0.00 0.00 84 1028.0
20260905092703 20 297 3.2 11.3 0.00 0.00 0.00 84 1028.0
20260905091803 20 297 3.2 6.4 0.00 0.00 0.00 83 1028.0
20260905090903 20 297 3.2 9.7 0.00 0.00 0.00 83 1028.0
20260905090003 20 295 3.2 6.4 0.00 0.00 0.00 82 1028.4
20260905085403 20 284 3.2 9.7 0.00 0.00 0.00 82 1028.0
20260905084503 20 262 1.6 4.8 0.00 0.00 0.00 82 1028.4
20260905083603 20 262 1.6 4.8 0.00 0.00 0.00 82 1028.4
20260905082918 20 262 1.6 4.8 0.00 0.00 0.00 81 1028.4
20260905081803 20 261 1.6 6.4 0.00 0.00 0.00 81 1028.4
20260905080903 20 261 1.6 4.8 0.00 0.00 0.00 81 1028.8
20260905080003 20 261 1.6 4.8 0.00 0.00 0.00 81 1028.8
20260905075403 20 261 1.6 3.2 0.00 0.00 0.00 81 1028.8
20260905074503 20 261 1.6 3.2 0.00 0.00 0.00 81 1028.8
20260905073603 20 261 1.6 3.2 0.00 0.00 0.00 81 1028.8
20260905072917 20 261 1.6 3.2 0.00 0.00 0.00 81 1029.2
20260905071803 20 261 1.6 3.2 0.00 0.00 0.00 82 1029.2
20260905070903 20 261 1.6 4.8 0.00 0.00 0.00 82 1028.8
20260905070003 21 262 1.6 3.2 0.00 0.00 0.00 82 1029.2
20260905065403 21 262 1.6 3.2 0.00 0.00 0.00 82 1029.2
20260905064503 20 262 1.6 3.2 0.00 0.00 0.00 82 1029.6
20260905063603 20 262 1.6 3.2 0.00 0.00 0.00 82 1029.2
20260905062703 20 262 3.2 4.8 0.00 0.00 0.00 82 1029.6
20260905061803 20 262 3.2 4.8 0.00 0.00 0.00 81 1029.6